Location: Chillicothe
(39.7950°N, 93.5520°W)
Time: 21:18:08
(UTC-06:00)

BEESAT - Visible Passes

Search period start: 16 November 2019 00:00
Search period end: 26 November 2019 00:00
Orbit: 700 x 709 km, 98.6° (Epoch: 16 November)

Date Brightness Start Highest point End Pass type
(mag) Time Alt. Az. Time Alt. Az. Time Alt. Az.
16 Nov ? 03:48:52 10° ESE 03:52:25 21° ENE 03:53:18 20° NE visible
16 Nov ? 05:25:26 10° SSW 05:29:53 39° W 05:32:13 24° NW visible
16 Nov ? 17:25:40 10° NNE 17:30:19 52° E 17:34:56 10° S visible
16 Nov ? 19:04:37 10° NNW 19:07:38 17° WNW 19:10:38 10° WSW visible
17 Nov ? 04:30:56 10° SSE 04:35:34 56° ENE 04:37:03 39° NNE visible
17 Nov ? 06:11:03 10° SW 06:13:37 14° W 06:15:58 11° WNW visible
17 Nov ? 18:09:04 10° N 18:13:44 56° WNW 18:18:22 10° SSW visible
18 Nov ? 03:38:40 10° ESE 03:41:40 17° ENE 03:41:53 17° ENE visible
18 Nov ? 05:14:22 10° S 05:18:58 52° W 05:20:49 33° NW visible
18 Nov ? 18:53:18 10° NNW 18:56:53 21° WNW 19:00:26 10° WSW visible
19 Nov ? 04:20:16 10° SE 04:24:44 43° ENE 04:25:41 38° NE visible
19 Nov ? 05:59:19 10° SW 06:02:39 19° W 06:04:35 15° WNW visible
19 Nov ? 17:58:08 10° N 18:02:54 73° WNW 18:07:37 10° SSW visible
20 Nov ? 03:28:45 10° E 03:30:32 13° ENE 03:30:32 13° ENE visible
20 Nov ? 05:03:22 10° S 05:08:05 69° WSW 05:09:28 45° NW visible
20 Nov ? 18:42:07 10° N 18:46:06 27° WNW 18:50:06 10° SW visible
21 Nov ? 04:09:42 10° SE 04:13:56 33° ENE 04:14:20 33° ENE visible
21 Nov ? 05:47:50 10° SSW 05:51:42 24° W 05:53:15 21° WNW visible
21 Nov ? 17:47:15 10° NNE 17:52:03 86° ESE 17:56:48 10° SSW visible
21 Nov ? 19:28:00 10° NW 19:29:03 11° WNW 19:30:06 10° WNW visible
22 Nov ? 04:52:28 10° SSE 04:57:12 89° W 04:58:08 58° NNW visible
22 Nov ? 18:31:01 10° N 18:35:19 35° WNW 18:39:37 10° SW visible
23 Nov ? 03:59:14 10° ESE 04:03:02 26° ENE 04:03:02 26° ENE visible
23 Nov ? 05:36:32 10° SSW 05:40:44 31° W 05:41:57 28° WNW visible
23 Nov ? 17:36:25 10° NNE 17:41:10 66° ESE 17:45:54 10° S visible
23 Nov ? 19:15:57 10° NNW 19:18:20 14° WNW 19:20:43 10° W visible
24 Nov ? 04:41:39 10° SSE 04:46:21 70° ENE 04:46:51 64° NNE visible
24 Nov ? 06:23:07 10° WSW 06:24:33 11° W 06:25:46 10° WNW visible
24 Nov ? 18:19:58 10° N 18:24:31 45° WNW 18:29:02 10° SW visible
25 Nov ? 03:48:54 10° ESE 03:51:45 20° ENE 03:51:45 20° ENE visible
25 Nov ? 05:25:21 10° S 05:29:49 41° W 05:30:40 37° WNW visible
25 Nov ? 17:25:38 10° NNE 17:30:16 50° E 17:34:53 10° S visible
25 Nov ? 19:04:29 10° NNW 19:07:36 18° WNW 19:10:43 10° WSW visible
